Location: Bosdarros
(43.2167°N, 0.3667°W)
Time: 12:34:47
(UTC+00:00)

FENGYUN 1C DEB - Pass Details

Date: 31 October 2021
Orbit: 805 x 871 km, 98.8° (Epoch: 26 November)

Event Time Altitude Azimuth Distance (km) Brightness Sun altitude
Exits shadow 18:58:06 54° 74° (ENE) 983 ? -23.0°
Maximum altitude 18:58:11 54° 71° (ENE) 982 ? -23.0°
Drops below altitude 10° 19:03:23 10° 355° (N) 2,422 ? -24.0°
Sets 19:05:47 0° 351° (N) 3,367 ? -24.4°
